Location: Newark
(45.2500°N, 7.5833°E)
Time: 07:17:04
(UTC+00:00)

Tiros 1 despin weight - Pass Details

Date: 03 February 2020
Orbit: 594 x 642 km, 48.2° (Epoch: 18 February)

Event Time Altitude Azimuth Distance (km) Brightness Sun altitude
Rises 08:43:09 0° 255° (WSW) 2,835 ? 15.9°
Reaches altitude 10° 08:45:25 10° 257° (WSW) 1,939 ? 16.1°
Maximum altitude 08:49:52 77° 343° (NNW) 625 ? 16.7°
Drops below altitude 10° 08:54:24 10° 71° (ENE) 1,971 ? 17.2°
Sets 08:56:44 0° 73° (ENE) 2,886 ? 17.5°
